Regional Weather Roundup
Issued by NWS

Home | Current Version | Previous Version | Text Only | Print | Product List | Glossary On
Versions: 1 2 3 4 5 6 7 8 9 10 11 12 13 14 15 16 17 18 19 20 21 22 23 24 25 26 27 28 29 30 31 32 33 34 35 36 37 38 39 40 41 42 43 44 45 46 47 48 49 50
000
ASUS44 KOUN 231810
RWROK

WEATHER ROUNDUP FOR OKLAHOMA
NATIONAL WEATHER SERVICE NORMAN OK
100 PM CDT SAT SEP 23 2017

NOTE: "FAIR" INDICATES FEW OR NO CLOUDS BELOW 12,000 FEET WITH NO
      SIGNIFICANT WEATHER AND/OR OBSTRUCTIONS TO VISIBILITY.

OKZ001>007-009>012-014-015-017-231900-
NORTHWEST OKLAHOMA AND THE PANHANDLE

CITY           SKY/WX    TMP DP  RH WIND       PRES   REMARKS
GAGE           MOSUNNY   85  64  49 S18G28    29.94F
6HR MIN TEMP:  69; 6HR MAX TEMP:  86;

GUYMON         CLOUDY    80  65  59 S15G25    29.92S
ENID/WOODRING  MOSUNNY   88  64  45 S15G24    29.94F
$$

OKZ016-021>023-033>039-044-045-231900-
SOUTHWEST OKLAHOMA

CITY           SKY/WX    TMP DP  RH WIND       PRES   REMARKS
LAWTON/REGL    MOSUNNY   87  67  51 S15G23    29.95F HX  90
6HR MIN TEMP:  68; 6HR MAX TEMP:  87;

LAWTON/FT SILL SUNNY     87  71  59 S16G25    29.94F HX  92
FREDERICK      SUNNY     87  65  47 S20       29.90F
CLINTON        MOSUNNY   84  63  49 S23G30    29.97F
HOBART         MOSUNNY   85  64  49 S21G26    29.96F
ALTUS AFB      SUNNY     86  62  44 SE21      29.93F
$$

OKZ018>020-024>031-231900-
CENTRAL OKLAHOMA

CITY           SKY/WX    TMP DP  RH WIND       PRES   REMARKS
OKLAHOMA CITY  PTSUNNY   86  66  51 S17       29.97F
6HR MIN TEMP:  67; 6HR MAX TEMP:  86;

OKC/WILEY POST MOSUNNY   86  67  52 S15       29.97F
OKC/TINKER AFB MOSUNNY   85  66  53 SE10      29.98F
STILLWATER     MOSUNNY   91  64  40 S13G22    29.97F HX  92
GUTHRIE        MOSUNNY   88  65  46 S15G23    29.97F HX  90
$$

OKZ008-013-054>072-231900-
NORTHEAST OKLAHOMA

CITY           SKY/WX    TMP DP  RH WIND       PRES   REMARKS
TULSA          MOSUNNY   89  68  49 SE15      29.98F HX  93
6HR MIN TEMP:  67; 6HR MAX TEMP:  89;

TULSA/JONES    MOSUNNY   88  66  48 S9        29.99F HX  90
PONCA CITY     MOSUNNY   88  66  48 S8G17     29.96F HX  90
MUSKOGEE       MOSUNNY   88  68  51 SE12      30.00F HX  91
$$

OKZ032-040>043-046>053-073>077-231900-
SOUTH CENTRAL/SOUTHEAST OKLAHOMA

CITY           SKY/WX    TMP DP  RH WIND       PRES   REMARKS
ARDMORE/DWNTWN MOSUNNY   88  63  42 S15       29.97F
MCALESTER      PTSUNNY   89  67  47 S10       29.99F HX  92
$$




USA.gov is the U.S. government's official web portal to all federal, state and local government web resources and services.